Вернуться в каталог

CZ-6A DEB

АктивенPO
NORAD 55205·DEBRIS·🇨🇳 China

Запущен Nov 11, 2022 с Taiyuan Satellite Launch Center

Loading…

Ближайшие Пролёты (ближайшие 24 часа)

TLE

СвежийSource: Space-Track

Эпоха: Sep 13, 2026, 22:08 UTC

1 55205U 22151VW  26256.92256462  .00006014  00000-0  10020-2 0  9991
2 55205  98.6116 324.0616 0068066   6.6942 353.5155 14.68880337198042

Отслеживайте CZ-6A DEB в реальном времени с AllMySat

Download on the App Store